User: anonymous   Login
Location: Unspecified
(0.0000°N, 0.0000°E)
Time: 06:51:17
(UTC+00:00)
Language:

Oscar 18 - Orbit

View from above orbital plane
View from above orbital plane
View from above satellite
View from above satellite

Ground track
Ground track

The orbit data is extracted from the following two-line orbital elements,

1 20441U 90005F   17087.81544728 +.00000018 +00000-0 +22699-4 0  9998
2 20441 098.5862 026.1324 0012246 038.5053 015.0230 14.32720394419750
Epoch (UTC): 28 March 2017 19:34:14
Eccentricity: 0.0012246
inclination: 98.5862°
perigee height: 774 km
apogee height: 791 km
right ascension of ascending node: 26.1324°
argument of perigee: 38.5053°
revolutions per day: 14.32720394
mean anomaly at epoch: 15.0230°
orbit number at epoch: 41975

The dashed part of the orbit path shows where the satellite is in the earth's shadow,  

DLR